Location: Newark
(54.0500°N, 12.8333°E)
Time: 03:59:06
(UTC+00:00)

SR - Visible Passes

Search period start: 21 January 2020 00:00
Search period end: 31 January 2020 00:00
Orbit: 574 x 882 km, 66.7° (Epoch: 20 January)

Date Brightness Start Highest point End Pass type
(mag) Time Alt. Az. Time Alt. Az. Time Alt. Az.
21 Jan ? 02:41:35 20° NNE 02:41:35 20° NNE 02:44:05 10° NE visible
21 Jan ? 04:20:59 22° NNW 04:23:20 29° NNE 04:28:10 10° E visible
21 Jan ? 06:00:40 10° NW 06:06:28 68° NE 06:11:49 10° SE visible
22 Jan ? 01:53:14 13° NE 01:53:14 13° NE 01:54:01 10° NE visible
22 Jan ? 03:32:38 25° N 03:33:05 25° N 03:37:43 10° ENE visible
22 Jan ? 05:12:03 16° NW 05:16:33 47° NE 05:21:47 10° ESE visible
23 Jan ? 02:44:19 21° NNE 02:44:19 21° NNE 02:47:19 10° NE visible
23 Jan ? 04:23:43 23° NNW 04:26:30 35° NNE 04:31:32 10° E visible
23 Jan ? 06:03:28 10° NW 06:09:14 83° SW 06:14:33 10° SE visible
24 Jan ? 01:56:00 14° NE 01:56:00 14° NE 01:57:04 10° NE visible
24 Jan ? 03:35:26 27° N 03:36:19 28° NNE 03:41:07 10° ENE visible
24 Jan ? 05:14:50 16° NW 05:19:29 66° NE 05:24:48 10° SE visible
25 Jan ? 02:47:09 23° NNE 02:47:09 23° NNE 02:50:40 10° ENE visible
25 Jan ? 04:26:33 25° NNW 04:29:34 46° NE 04:34:45 10° ESE visible
25 Jan ? 06:06:20 10° NW 06:11:52 54° WSW 06:16:57 10° SSE visible
26 Jan ? 01:58:54 15° NE 01:58:54 15° NE 02:00:16 10° NE visible
26 Jan ? 03:38:19 31° N 03:39:30 34° NNE 03:44:29 10° E visible
26 Jan ? 05:17:44 17° NW 05:22:16 86° SW 05:27:34 10° SE visible
27 Jan ? 02:50:07 27° NNE 02:50:07 27° NNE 02:54:04 10° ENE visible
27 Jan ? 04:29:32 28° NNW 04:32:30 63° NE 04:37:47 10° SE visible
27 Jan ? 06:09:20 10° NW 06:14:21 34° WSW 06:18:59 10° S visible
28 Jan ? 02:01:59 17° NE 02:01:59 17° NE 02:03:36 10° ENE visible
28 Jan ? 03:41:24 39° N 03:42:34 44° NE 03:47:43 10° ESE visible
28 Jan ? 05:20:49 18° NW 05:24:55 56° WSW 05:30:00 10° SSE visible
29 Jan ? 02:53:20 32° NE 02:53:20 32° NE 02:57:26 10° E visible
29 Jan ? 04:32:45 34° NW 04:35:19 89° SW 04:40:34 10° SE visible
29 Jan ? 06:12:38 10° WNW 06:16:39 21° WSW 06:20:28 10° SSW visible
30 Jan ? 02:05:19 18° ENE 02:05:19 18° ENE 02:07:00 10° ENE visible
30 Jan ? 03:44:45 55° N 03:45:31 61° NE 03:50:46 10° ESE visible
30 Jan ? 05:24:11 19° WNW 05:27:24 35° WSW 05:32:04 10° S visible
